Weather History for Sedalia, MO

Change the Weather History Date:

Saturday, March 30, 2013

  Actual Average Record
Temperature  
Mean Temperature 51 °F 51 °F  
Max Temperature 57 °F 62 °F 84 °F (1986)
Min Temperature 44 °F 41 °F 15 °F (1964)
Degree Days  
Heating Degree Days 14 14  
Month to date heating degree days 793 571  
Since 1 July heating degree days 4231 4188  
Cooling Degree Days 0 0  
Month to date cooling degree days 0 0  
Year to date cooling degree days 1 0  
Growing Degree Days 2 (Base 50)    
Moisture  
Dew Point 47 °F    
Average Humidity 80    
Maximum Humidity 93    
Minimum Humidity 66    
Precipitation  
Precipitation 0.30 in 0.09 in 0.91 in (1951)
Month to date precipitation 2.40 2.52  
Year to date precipitation 7.67 6.12  
Sea Level Pressure  
Sea Level Pressure 29.98 in    
Wind  
Wind Speed 8 mph (SE)    
Max Wind Speed 18 mph    
Max Gust Speed 24 mph    
Visibility 7 miles    
Events Rain    
T = Trace of Precipitation, MM = Missing Value Source: NWS Daily Summary

Daily Weather History Graph

Daily Weather History Graph

Search for Another Location

Airport:

Trip Planner

Search our weather history database for the weather conditions in past years. The results will help you decide how hot, cold, wet, or windy it might be!

Date:

Astronomy

Mar. 30, 2013 Rise Set
Actual Time 7:00 AM CDT 7:34 PM CDT
Civil Twilight 6:33 AM CDT 8:01 PM CDT
Nautical Twilight 6:01 AM CDT 8:32 PM CDT
Astronomical Twilight 5:29 AM CDT 9:05 PM CDT
Moon 11:39 PM CDT (3/30) 8:58 AM CDT (3/30)
Length of Visible Light 13h 27m
Length of Day
12h 34m
Waning Gibbous, 86% of the Moon is Illuminated
Mar 30
Waning Gibbous
Apr 2
Last Quarter
Apr 10
New
Apr 18
First Quarter
Apr 25
Full

Hourly Weather History & Observations

Time (CDT) Temp. Dew Point Humidity Pressure Visibility Wind Dir Wind Speed Gust Speed Precip Events Conditions
12:53 AM 48.0 °F 37.0 °F 66% 30.13 in 10.0 mi ESE 8.1 mph - N/A   Clear
1:53 AM 48.0 °F 37.0 °F 66% 30.14 in 10.0 mi SE 4.6 mph - N/A   Clear
2:53 AM 46.9 °F 37.9 °F 71% 30.12 in 10.0 mi ESE 6.9 mph - N/A   Clear
3:53 AM 46.9 °F 39.0 °F 74% 30.09 in 10.0 mi SE 9.2 mph - N/A   Clear
4:53 AM 46.9 °F 41.0 °F 80% 30.08 in 10.0 mi SE 8.1 mph - N/A   Scattered Clouds
5:53 AM 48.0 °F 43.0 °F 83% 30.06 in 10.0 mi SE 9.2 mph - N/A   Scattered Clouds
6:53 AM 50.0 °F 45.0 °F 83% 30.04 in 10.0 mi SSE 13.8 mph - N/A   Overcast
7:53 AM 51.1 °F 46.0 °F 83% 30.04 in 10.0 mi SSE 13.8 mph - N/A   Overcast
8:53 AM 51.1 °F 46.0 °F 83% 30.03 in 10.0 mi SE 12.7 mph - N/A   Overcast
9:50 AM 50.0 °F 46.4 °F 87% 30.03 in 1.8 mi SSE 15.0 mph - 0.11 in Rain Heavy Rain
9:53 AM 50.0 °F 46.9 °F 89% 30.05 in 1.5 mi South 15.0 mph - 0.12 in Rain Heavy Rain
10:03 AM 50.0 °F 46.4 °F 87% 30.01 in 3.0 mi SE 15.0 mph - 0.02 in Rain Light Rain
10:28 AM 50.0 °F 46.4 °F 87% 30.01 in 2.5 mi SSE 13.8 mph - 0.09 in Rain Rain
10:41 AM 50.0 °F 46.4 °F 87% 30.02 in 4.0 mi SSE 15.0 mph 23.0 mph 0.13 in Rain Light Rain
10:53 AM 50.0 °F 48.0 °F 93% 30.01 in 5.0 mi SE 13.8 mph - 0.14 in Rain Light Rain
11:25 AM 51.8 °F 48.2 °F 88% 30.00 in 7.0 mi SE 10.4 mph 20.7 mph 0.00 in   Overcast
11:53 AM 53.1 °F 48.9 °F 86% 30.00 in 7.0 mi SE 12.7 mph - 0.00 in   Overcast
12:53 PM 52.0 °F 48.9 °F 89% 30.00 in 5.0 mi SSE 13.8 mph - 0.03 in Rain Light Rain
1:53 PM 53.1 °F 50.0 °F 89% 29.99 in 6.0 mi SSE 12.7 mph - 0.00 in   Overcast
2:10 PM 53.6 °F 50.0 °F 88% 29.97 in 6.0 mi SSE 9.2 mph - N/A   Overcast
2:53 PM 54.0 °F 48.9 °F 83% 29.96 in 7.0 mi SSE 9.2 mph - N/A   Overcast
3:53 PM 55.0 °F 50.0 °F 83% 29.94 in 9.0 mi South 9.2 mph - N/A   Overcast
4:17 PM 55.4 °F 50.0 °F 82% 29.92 in 10.0 mi South 10.4 mph - N/A   Overcast
4:37 PM 55.4 °F 50.0 °F 82% 29.91 in 10.0 mi South 9.2 mph - N/A   Overcast
4:53 PM 55.9 °F 50.0 °F 80% 29.91 in 10.0 mi SSE 9.2 mph - N/A   Overcast
5:53 PM 55.9 °F 50.0 °F 80% 29.90 in 10.0 mi SSE 6.9 mph - N/A   Overcast
6:15 PM 57.2 °F 51.8 °F 82% 29.90 in 10.0 mi SE 4.6 mph - N/A   Overcast
6:48 PM 57.2 °F 50.0 °F 77% 29.89 in 10.0 mi ESE 3.5 mph - N/A   Mostly Cloudy
6:53 PM 57.0 °F 51.1 °F 81% 29.90 in 10.0 mi Calm Calm - N/A   Mostly Cloudy
7:31 PM 55.4 °F 50.0 °F 82% 29.90 in 10.0 mi ESE 3.5 mph - N/A   Mostly Cloudy
7:53 PM 55.0 °F 50.0 °F 83% 29.91 in 10.0 mi Calm Calm - N/A   Overcast
8:53 PM 52.0 °F 48.9 °F 89% 29.92 in 9.0 mi Calm Calm - N/A   Overcast
9:21 PM 51.8 °F 48.2 °F 88% 29.92 in 8.0 mi SE 4.6 mph - N/A   Scattered Clouds
9:53 PM 52.0 °F 48.9 °F 89% 29.93 in 8.0 mi Calm Calm - N/A   Clear
10:53 PM 48.0 °F 46.9 °F 96% 29.93 in 1.8 mi ESE 3.5 mph - N/A   Clear
11:14 PM 48.2 °F 46.4 °F 93% 29.92 in 1.2 mi ESE 3.5 mph - N/A   Clear
11:18 PM 48.2 °F 46.4 °F 93% 29.92 in 2.0 mi ESE 4.6 mph - N/A   Clear
11:46 PM 48.2 °F 46.4 °F 93% 29.92 in 1.2 mi Calm Calm - N/A   Clear
11:53 PM 48.9 °F 46.9 °F 93% 29.93 in 1.0 mi Calm Calm - N/A   Clear